FW3268 Weather Reports


Display with metric or nautical units.
time (UTC)temp
F
wind
direction
speed
MPH
gust
MPH
rain 1hr
in
rain 24hr
in
rain mn
in
humidity
%
barometer
mb
20260504194501 72 253 17.0 27.0 0.00 0.03 0.00 55 1003.8
20260504193002 72 250 17.0 24.0 0.00 0.03 0.00 56 1004.3
20260504191502 71 244 20.0 28.0 0.00 0.03 0.00 56 1004.3
20260504190004 72 259 18.0 30.0 0.00 0.03 0.00 56 1004.4
20260504184500 72 258 20.0 29.0 0.00 0.07 0.00 56 1004.7
20260504183000 73 247 21.0 31.0 0.00 0.07 0.00 53 1004.6
20260504181503 73 243 21.0 31.0 0.00 0.07 0.00 54 1004.3
20260504180004 74 245 21.0 30.0 0.00 0.07 0.00 53 1004.2
20260504174504 73 265 20.0 28.0 0.00 0.07 0.00 55 1004.4
20260504173002 72 232 19.0 29.0 0.00 0.07 0.00 56 1004.5
20260504081500 51 225 7.0 11.0 0.00 0.07 0.00 75 1007.4
20260504050004 54 220 7.0 11.0 0.00 0.07 0.00 71 1008.9
20260504044502 53 222 7.0 11.0 0.00 0.07 0.00 71 1008.9
20260504043001 53 212 7.0 11.0 0.00 0.07 0.00 71 1009.1
20260504041501 52 186 4.0 7.0 0.00 0.07 0.00 75 1009.2
20260504040006 52 177 5.0 7.0 0.00 0.07 0.00 75 1009.4
20260504034501 52 172 6.0 9.0 0.00 0.07 0.07 75 1009.5
20260504033002 53 184 6.0 9.0 0.00 0.07 0.07 74 1009.6
20260504031501 53 184 6.0 9.0 0.00 0.07 0.07 74 1009.6
20260504030005 53 177 4.0 7.0 0.00 0.07 0.07 75 1009.7
20260504024504 53 195 4.0 6.0 0.00 0.07 0.07 75 1009.8
20260504021502 53 175 3.0 6.0 0.00 0.07 0.07 75 1009.9
20260504020005 54 167 4.0 5.0 0.00 0.07 0.07 73 1009.9
20260504014503 54 160 4.0 6.0 0.00 0.07 0.07 72 1009.8
20260504013002 55 176 5.0 9.0 0.00 0.07 0.07 71 1009.8
20260504011501 56 178 6.0 9.0 0.00 0.07 0.07 69 1009.8
20260504004501 56 213 6.0 9.0 0.00 0.07 0.07 67 1010.0
20260504003003 56 199 6.0 10.0 0.00 0.07 0.07 66 1010.0
20260504001502 56 219 7.0 12.0 0.00 0.07 0.07 66 1010.1
20260504000005 56 221 9.0 14.0 0.00 0.07 0.07 69 1010.2
20260503234502 57 234 8.0 12.0 0.00 0.07 0.07 67 1010.3
20260503233001 57 225 11.0 18.0 0.00 0.07 0.07 65 1010.5
20260503231501 57 231 10.0 15.0 0.00 0.07 0.07 68 1010.5
20260503230007 58 236 12.0 17.0 0.00 0.07 0.07 65 1010.6
20260503224501 59 240 13.0 18.0 0.00 0.07 0.07 63 1010.7
20260503223001 59 222 11.0 18.0 0.00 0.07 0.07 63 1010.8
20260503221501 58 217 12.0 19.0 0.00 0.07 0.07 64 1010.7
20260503220005 58 221 9.0 15.0 0.01 0.07 0.07 63 1010.9
20260503213000 58 226 12.0 16.0 0.01 0.07 0.07 62 1011.2
20260503210005 57 236 9.0 14.0 0.00 0.06 0.06 63 1011.8
20260503204502 54 143 10.0 14.0 0.00 0.06 0.06 79 1012.0
20260503203002 54 97 8.0 11.0 0.00 0.06 0.06 76 1012.4
20260503200004 51 119 8.0 10.0 0.02 0.06 0.06 77 1013.2